SITE: BDASe,YEAR: 2003,,,,,
2003date,time,pzhd (cm),DWT (cm),WT elev (m),,
01/01/03,0:00,151.5,217.7,1371.3,,Depth to water table:
01/01/03,0:30,151.4,217.8,1371.3,,DWT = SCL - CH - h (all values in cm)
01/01/03,1:00,151.1,218.1,1371.3,,where
01/01/03,1:30,151.1,218.1,1371.3,,SCL = sensor cable length = 525.7 cm
01/01/03,2:00,151.1,218.1,1371.3,,CH = casing height of well = 156.5 cm
01/01/03,2:30,151.1,218.1,1371.3,,h = height of water above sensor (from pzhd column)
01/01/03,3:00,151.1,218.1,1371.3,,
01/01/03,3:30,151.0,218.2,1371.3,,WT elevation:
01/01/03,4:00,151.0,218.2,1371.3,,Sensor elev = 1369.788 m asl
01/01/03,4:30,151.0,218.2,1371.3,,WT elev = sensor elev + h (from pzhd column)
01/01/03,5:00,150.9,218.3,1371.3,,
01/01/03,5:30,150.9,218.3,1371.3,,
01/01/03,6:00,150.8,218.4,1371.3,,
01/01/03,6:30,150.9,218.3,1371.3,,Dates w/missing data (#0.5 hr data points):
01/01/03,7:00,150.8,218.4,1371.3,,"1/13 (3), 3/12 (3), 4/15 (8), 7/16--17 (32), 7/19 (20), "
01/01/03,7:30,150.8,218.4,1371.3,,"9/10 (21), 10/2 (6), 10/15 (5), 10/29 (18), 11/21--22 (31)."
01/01/03,8:00,150.7,218.5,1371.3,,
01/01/03,8:30,150.5,218.7,1371.3,,
01/01/03,9:00,150.3,218.9,1371.3,,
01/01/03,9:30,150.4,218.8,1371.3,,
01/01/03,10:00,150.4,218.8,1371.3,,Well dried up from late Jul to mid Nov. All data between 7/17 04:30
01/01/03,10:30,150.3,218.9,1371.3,,and 11/14 15:00 are estimated from a linear regression between
01/01/03,11:00,150.2,219.0,1371.3,,"existing 2003 c and e well data, where:"
01/01/03,11:30,150.4,218.8,1371.3,,"est e DWT = cDWT*1.074 - 28.840, r sq = 0.987."
01/01/03,12:00,150.3,218.9,1371.3,,5782 est data points.
01/01/03,12:30,150.4,218.8,1371.3,,
01/01/03,13:00,150.5,218.7,1371.3,,
01/01/03,13:30,150.4,218.8,1371.3,,
01/01/03,14:00,150.7,218.5,1371.3,,
01/01/03,14:30,150.5,218.7,1371.3,,
01/01/03,15:00,150.4,218.8,1371.3,,
01/01/03,15:30,150.5,218.7,1371.3,,
01/01/03,16:00,150.4,218.8,1371.3,,
01/01/03,16:30,150.4,218.8,1371.3,,
01/01/03,17:00,150.4,218.8,1371.3,,
01/01/03,17:30,150.3,218.9,1371.3,,
01/01/03,18:00,150.1,219.1,1371.3,,
01/01/03,18:30,150.3,218.9,1371.3,,
01/01/03,19:00,150.1,219.1,1371.3,,
01/01/03,19:30,150.1,219.1,1371.3,,
01/01/03,20:00,149.9,219.3,1371.3,,
01/01/03,20:30,150.0,219.2,1371.3,,
01/01/03,21:00,149.9,219.3,1371.3,,
01/01/03,21:30,149.9,219.3,1371.3,,
01/01/03,22:00,149.9,219.3,1371.3,,
01/01/03,22:30,149.9,219.3,1371.3,,
01/01/03,23:00,149.9,219.3,1371.3,,
01/01/03,23:30,149.7,219.5,1371.3,,
01/02/03,0:00,149.7,219.5,1371.3,,
01/02/03,0:30,149.9,219.3,1371.3,,
01/02/03,1:00,149.7,219.6,1371.3,,
01/02/03,1:30,149.9,219.4,1371.3,,
01/02/03,2:00,149.9,219.4,1371.3,,
01/02/03,2:30,149.8,219.5,1371.3,,
01/02/03,3:00,149.9,219.4,1371.3,,
01/02/03,3:30,149.8,219.5,1371.3,,
01/02/03,4:00,149.8,219.5,1371.3,,
01/02/03,4:30,149.9,219.4,1371.3,,
01/02/03,5:00,149.8,219.5,1371.3,,
01/02/03,5:30,150.0,219.3,1371.3,,
01/02/03,6:00,149.9,219.4,1371.3,,
01/02/03,6:30,149.8,219.5,1371.3,,
01/02/03,7:00,149.8,219.5,1371.3,,
01/02/03,7:30,149.9,219.4,1371.3,,
01/02/03,8:00,149.9,219.4,1371.3,,
01/02/03,8:30,149.8,219.5,1371.3,,
01/02/03,9:00,149.7,219.6,1371.3,,
01/02/03,9:30,149.5,219.8,1371.3,,
01/02/03,10:00,149.7,219.6,1371.3,,
01/02/03,10:30,149.6,219.7,1371.3,,
01/02/03,11:00,149.7,219.6,1371.3,,
01/02/03,11:30,149.7,219.5,1371.3,,
01/02/03,12:00,149.9,219.3,1371.3,,
01/02/03,12:30,150.1,219.1,1371.3,,
01/02/03,13:00,150.3,218.9,1371.3,,
01/02/03,13:30,150.4,218.8,1371.3,,
01/02/03,14:00,150.6,218.6,1371.3,,
01/02/03,14:30,150.7,218.5,1371.3,,
01/02/03,15:00,150.8,218.4,1371.3,,
01/02/03,15:30,150.8,218.4,1371.3,,
01/02/03,16:00,150.8,218.4,1371.3,,
01/02/03,16:30,150.8,218.4,1371.3,,
01/02/03,17:00,151.0,218.2,1371.3,,
01/02/03,17:30,150.9,218.3,1371.3,,
01/02/03,18:00,150.9,218.3,1371.3,,
01/02/03,18:30,150.8,218.4,1371.3,,
01/02/03,19:00,150.8,218.4,1371.3,,
01/02/03,19:30,150.8,218.4,1371.3,,
01/02/03,20:00,150.7,218.5,1371.3,,
01/02/03,20:30,150.7,218.5,1371.3,,
01/02/03,21:00,150.8,218.4,1371.3,,
01/02/03,21:30,150.7,218.5,1371.3,,
01/02/03,22:00,150.6,218.6,1371.3,,
01/02/03,22:30,150.6,218.6,1371.3,,
01/02/03,23:00,150.6,218.6,1371.3,,
01/02/03,23:30,150.5,218.7,1371.3,,
01/03/03,0:00,150.6,218.6,1371.3,,
01/03/03,0:30,150.7,218.5,1371.3,,
01/03/03,1:00,150.6,218.6,1371.3,,
01/03/03,1:30,150.6,218.6,1371.3,,
01/03/03,2:00,150.5,218.7,1371.3,,
01/03/03,2:30,150.5,218.7,1371.3,,
01/03/03,3:00,150.5,218.7,1371.3,,
01/03/03,3:30,150.6,218.6,1371.3,,
01/03/03,4:00,150.6,218.6,1371.3,,
01/03/03,4:30,150.7,218.5,1371.3,,
01/03/03,5:00,150.7,218.5,1371.3,,
01/03/03,5:30,150.6,218.6,1371.3,,
01/03/03,6:00,150.7,218.5,1371.3,,
01/03/03,6:30,150.6,218.6,1371.3,,
01/03/03,7:00,150.7,218.5,1371.3,,
01/03/03,7:30,150.6,218.6,1371.3,,
01/03/03,8:00,150.7,218.5,1371.3,,
01/03/03,8:30,150.6,218.6,1371.3,,
01/03/03,9:00,150.7,218.5,1371.3,,
01/03/03,9:30,150.6,218.6,1371.3,,
01/03/03,10:00,150.6,218.6,1371.3,,
01/03/03,10:30,150.7,218.5,1371.3,,
01/03/03,11:00,151.0,218.2,1371.3,,
01/03/03,11:30,150.9,218.3,1371.3,,
01/03/03,12:00,151.1,218.1,1371.3,,
01/03/03,12:30,151.3,217.9,1371.3,,
01/03/03,13:00,151.4,217.8,1371.3,,
01/03/03,13:30,151.5,217.7,1371.3,,
01/03/03,14:00,151.5,217.7,1371.3,,
01/03/03,14:30,151.5,217.7,1371.3,,
01/03/03,15:00,151.8,217.4,1371.3,,
01/03/03,15:30,151.6,217.6,1371.3,,
01/03/03,16:00,151.7,217.5,1371.3,,
01/03/03,16:30,151.7,217.5,1371.3,,
01/03/03,17:00,151.6,217.6,1371.3,,
01/03/03,17:30,151.7,217.5,1371.3,,
01/03/03,18:00,151.7,217.5,1371.3,,
01/03/03,18:30,151.6,217.6,1371.3,,
01/03/03,19:00,151.5,217.7,1371.3,,
01/03/03,19:30,151.5,217.7,1371.3,,
01/03/03,20:00,151.5,217.7,1371.3,,
01/03/03,20:30,151.4,217.8,1371.3,,
01/03/03,21:00,151.4,217.8,1371.3,,
01/03/03,21:30,151.4,217.8,1371.3,,
01/03/03,22:00,151.4,217.8,1371.3,,
01/03/03,22:30,151.4,217.8,1371.3,,
01/03/03,23:00,151.4,217.8,1371.3,,
01/03/03,23:30,151.2,218.0,1371.3,,
01/04/03,0:00,151.3,217.9,1371.3,,
01/04/03,0:30,151.2,218.0,1371.3,,
01/04/03,1:00,151.3,217.9,1371.3,,
01/04/03,1:30,151.3,217.9,1371.3,,
01/04/03,2:00,151.3,217.9,1371.3,,
01/04/03,2:30,151.3,217.9,1371.3,,
01/04/03,3:00,151.4,217.8,1371.3,,
01/04/03,3:30,151.2,218.0,1371.3,,
01/04/03,4:00,151.3,217.9,1371.3,,
01/04/03,4:30,151.5,217.7,1371.3,,
01/04/03,5:00,151.3,217.9,1371.3,,
01/04/03,5:30,151.2,218.0,1371.3,,
01/04/03,6:00,151.4,217.8,1371.3,,
01/04/03,6:30,151.2,218.0,1371.3,,
01/04/03,7:00,151.3,217.9,1371.3,,
01/04/03,7:30,151.3,217.9,1371.3,,
01/04/03,8:00,151.2,218.0,1371.3,,
01/04/03,8:30,151.1,218.1,1371.3,,
01/04/03,9:00,151.2,218.0,1371.3,,
01/04/03,9:30,151.1,218.1,1371.3,,
01/04/03,10:00,151.2,218.0,1371.3,,
01/04/03,10:30,151.2,218.0,1371.3,,
01/04/03,11:00,151.4,217.8,1371.3,,
01/04/03,11:30,151.2,218.0,1371.3,,
01/04/03,12:00,151.3,217.9,1371.3,,
01/04/03,12:30,151.5,217.7,1371.3,,
01/04/03,13:00,151.6,217.6,1371.3,,
01/04/03,13:30,152.0,217.2,1371.3,,
01/04/03,14:00,151.9,217.3,1371.3,,
01/04/03,14:30,151.9,217.3,1371.3,,
01/04/03,15:00,152.0,217.2,1371.3,,
01/04/03,15:30,151.9,217.3,1371.3,,
01/04/03,16:00,151.9,217.3,1371.3,,
01/04/03,16:30,151.9,217.3,1371.3,,
01/04/03,17:00,151.9,217.3,1371.3,,
01/04/03,17:30,151.9,217.3,1371.3,,
01/04/03,18:00,151.8,217.4,1371.3,,
01/04/03,18:30,151.8,217.4,1371.3,,
01/04/03,19:00,151.8,217.4,1371.3,,
01/04/03,19:30,151.8,217.4,1371.3,,
01/04/03,20:00,151.6,217.6,1371.3,,
01/04/03,20:30,151.6,217.6,1371.3,,
01/04/03,21:00,151.6,217.6,1371.3,,
01/04/03,21:30,151.4,217.8,1371.3,,
01/04/03,22:00,151.6,217.6,1371.3,,
01/04/03,22:30,151.5,217.7,1371.3,,
01/04/03,23:00,151.4,217.8,1371.3,,
01/04/03,23:30,151.6,217.6,1371.3,,
01/05/03,0:00,151.6,217.6,1371.3,,
01/05/03,0:30,151.6,217.6,1371.3,,
01/05/03,1:00,151.7,217.5,1371.3,,
01/05/03,1:30,151.7,217.5,1371.3,,
01/05/03,2:00,151.6,217.6,1371.3,,
01/05/03,2:30,151.6,217.6,1371.3,,
01/05/03,3:00,151.6,217.6,1371.3,,
01/05/03,3:30,151.6,217.6,1371.3,,
01/05/03,4:00,151.6,217.6,1371.3,,
01/05/03,4:30,151.5,217.7,1371.3,,
01/05/03,5:00,151.6,217.6,1371.3,,
01/05/03,5:30,151.6,217.6,1371.3,,
01/05/03,6:00,151.5,217.7,1371.3,,
01/05/03,6:30,151.7,217.5,1371.3,,
01/05/03,7:00,151.4,217.8,1371.3,,
01/05/03,7:30,151.6,217.6,1371.3,,
01/05/03,8:00,151.7,217.5,1371.3,,
01/05/03,8:30,151.7,217.5,1371.3,,
01/05/03,9:00,151.8,217.4,1371.3,,
01/05/03,9:30,151.6,217.6,1371.3,,
01/05/03,10:00,151.7,217.5,1371.3,,
01/05/03,10:30,151.6,217.6,1371.3,,
01/05/03,11:00,151.8,217.4,1371.3,,
01/05/03,11:30,151.9,217.3,1371.3,,
01/05/03,12:00,152.0,217.2,1371.3,,
01/05/03,12:30,152.4,216.8,1371.3,,
01/05/03,13:00,152.3,216.9,1371.3,,
01/05/03,13:30,152.4,216.8,1371.3,,
01/05/03,14:00,152.5,216.7,1371.3,,
01/05/03,14:30,152.6,216.6,1371.3,,
01/05/03,15:00,152.5,216.7,1371.3,,
01/05/03,15:30,152.6,216.6,1371.3,,
01/05/03,16:00,152.5,216.7,1371.3,,
01/05/03,16:30,152.6,216.6,1371.3,,
01/05/03,17:00,152.5,216.7,1371.3,,
01/05/03,17:30,152.6,216.6,1371.3,,
01/05/03,18:00,152.6,216.6,1371.3,,
01/05/03,18:30,152.5,216.7,1371.3,,
01/05/03,19:00,152.4,216.8,1371.3,,
01/05/03,19:30,152.4,216.8,1371.3,,
01/05/03,20:00,152.3,216.9,1371.3,,
01/05/03,20:30,152.3,216.9,1371.3,,
01/05/03,21:00,152.1,217.1,1371.3,,
01/05/03,21:30,152.0,217.2,1371.3,,
01/05/03,22:00,152.0,217.2,1371.3,,
01/05/03,22:30,152.1,217.1,1371.3,,
01/05/03,23:00,151.9,217.3,1371.3,,
01/05/03,23:30,151.9,217.3,1371.3,,
01/06/03,0:00,151.8,217.4,1371.3,,
01/06/03,0:30,151.7,217.5,1371.3,,
01/06/03,1:00,151.9,217.3,1371.3,,
01/06/03,1:30,151.6,217.6,1371.3,,
01/06/03,2:00,151.5,217.7,1371.3,,
01/06/03,2:30,151.4,217.8,1371.3,,
01/06/03,3:00,151.2,218.0,1371.3,,
01/06/03,3:30,151.1,218.1,1371.3,,
01/06/03,4:00,151.2,218.0,1371.3,,
01/06/03,4:30,151.3,217.9,1371.3,,
01/06/03,5:00,151.1,218.1,1371.3,,
01/06/03,5:30,150.9,218.3,1371.3,,
01/06/03,6:00,151.0,218.2,1371.3,,
01/06/03,6:30,151.0,218.2,1371.3,,
01/06/03,7:00,150.8,218.4,1371.3,,
01/06/03,7:30,150.8,218.4,1371.3,,
01/06/03,8:00,150.8,218.4,1371.3,,
01/06/03,8:30,150.6,218.6,1371.3,,
01/06/03,9:00,150.7,218.5,1371.3,,
01/06/03,9:30,150.5,218.7,1371.3,,
01/06/03,10:00,150.4,218.8,1371.3,,
01/06/03,10:30,150.4,218.8,1371.3,,
01/06/03,11:00,150.6,218.6,1371.3,,
01/06/03,11:30,150.7,218.5,1371.3,,
01/06/03,12:00,150.9,218.3,1371.3,,
01/06/03,12:30,150.9,218.3,1371.3,,
01/06/03,13:00,151.0,218.3,1371.3,,
01/06/03,13:30,151.2,218.1,1371.3,,
01/06/03,14:00,151.2,218.1,1371.3,,
01/06/03,14:30,151.3,218.0,1371.3,,
01/06/03,15:00,151.5,217.8,1371.3,,
01/06/03,15:30,151.5,217.8,1371.3,,
01/06/03,16:00,151.3,218.0,1371.3,,
01/06/03,16:30,151.3,218.0,1371.3,,
01/06/03,17:00,151.2,218.1,1371.3,,
01/06/03,17:30,151.3,218.0,1371.3,,
01/06/03,18:00,151.2,218.1,1371.3,,
01/06/03,18:30,151.2,218.1,1371.3,,
01/06/03,19:00,151.2,218.1,1371.3,,
01/06/03,19:30,151.2,218.1,1371.3,,
01/06/03,20:00,151.3,218.0,1371.3,,
01/06/03,20:30,151.1,218.2,1371.3,,
01/06/03,21:00,151.1,218.2,1371.3,,
01/06/03,21:30,151.1,218.2,1371.3,,
01/06/03,22:00,151.1,218.2,1371.3,,
01/06/03,22:30,151.1,218.2,1371.3,,
01/06/03,23:00,151.1,218.2,1371.3,,
01/06/03,23:30,151.0,218.2,1371.3,,
01/07/03,0:00,150.9,218.3,1371.3,,
01/07/03,0:30,151.1,218.1,1371.3,,
01/07/03,1:00,151.1,218.1,1371.3,,
01/07/03,1:30,151.1,218.1,1371.3,,
01/07/03,2:00,150.9,218.3,1371.3,,
01/07/03,2:30,151.5,217.7,1371.3,,
01/07/03,3:00,151.1,218.1,1371.3,,
01/07/03,3:30,151.3,217.9,1371.3,,
01/07/03,4:00,151.1,218.1,1371.3,,
01/07/03,4:30,151.3,217.9,1371.3,,
01/07/03,5:00,151.3,217.9,1371.3,,
01/07/03,5:30,151.3,217.9,1371.3,,
01/07/03,6:00,151.3,217.9,1371.3,,
01/07/03,6:30,151.5,217.7,1371.3,,
01/07/03,7:00,151.3,217.9,1371.3,,
01/07/03,7:30,151.5,217.7,1371.3,,
01/07/03,8:00,151.5,217.7,1371.3,,
01/07/03,8:30,151.7,217.5,1371.3,,
01/07/03,9:00,151.5,217.7,1371.3,,
01/07/03,9:30,151.6,217.6,1371.3,,
01/07/03,10:00,151.6,217.6,1371.3,,
01/07/03,10:30,151.8,217.4,1371.3,,
01/07/03,11:00,151.7,217.5,1371.3,,
01/07/03,11:30,151.9,217.3,1371.3,,
01/07/03,12:00,152.1,217.1,1371.3,,
01/07/03,12:30,152.2,217.0,1371.3,,
01/07/03,13:00,152.2,217.0,1371.3,,
01/07/03,13:30,152.3,216.9,1371.3,,
01/07/03,14:00,152.6,216.6,1371.3,,
01/07/03,14:30,152.7,216.5,1371.3,,
01/07/03,15:00,152.7,216.5,1371.3,,
01/07/03,15:30,152.6,216.6,1371.3,,
01/07/03,16:00,152.7,216.5,1371.3,,
01/07/03,16:30,152.8,216.4,1371.3,,
01/07/03,17:00,152.7,216.5,1371.3,,
01/07/03,17:30,152.8,216.4,1371.3,,
01/07/03,18:00,152.7,216.5,1371.3,,
01/07/03,18:30,152.7,216.5,1371.3,,
01/07/03,19:00,152.7,216.5,1371.3,,
01/07/03,19:30,152.7,216.5,1371.3,,
01/07/03,20:00,152.7,216.5,1371.3,,
01/07/03,20:30,152.8,216.4,1371.3,,
01/07/03,21:00,152.6,216.6,1371.3,,
01/07/03,21:30,152.6,216.6,1371.3,,
01/07/03,22:00,152.7,216.5,1371.3,,
01/07/03,22:30,152.6,216.6,1371.3,,
01/07/03,23:00,152.5,216.7,1371.3,,
01/07/03,23:30,152.7,216.5,1371.3,,
01/08/03,0:00,152.6,216.6,1371.3,,
01/08/03,0:30,152.7,216.5,1371.3,,
01/08/03,1:00,152.7,216.5,1371.3,,
01/08/03,1:30,152.6,216.6,1371.3,,
01/08/03,2:00,152.7,216.5,1371.3,,
01/08/03,2:30,152.7,216.5,1371.3,,
01/08/03,3:00,152.7,216.5,1371.3,,
01/08/03,3:30,152.8,216.4,1371.3,,
01/08/03,4:00,152.9,216.3,1371.3,,
01/08/03,4:30,152.8,216.4,1371.3,,
01/08/03,5:00,152.9,216.3,1371.3,,
01/08/03,5:30,153.0,216.2,1371.3,,
01/08/03,6:00,153.1,216.1,1371.3,,
01/08/03,6:30,152.6,216.6,1371.3,,
01/08/03,7:00,152.7,216.5,1371.3,,
01/08/03,7:30,152.9,216.3,1371.3,,
01/08/03,8:00,152.9,216.3,1371.3,,
01/08/03,8:30,152.9,216.3,1371.3,,
01/08/03,9:00,152.9,216.3,1371.3,,
01/08/03,9:30,152.9,216.3,1371.3,,
01/08/03,10:00,153.0,216.2,1371.3,,
01/08/03,10:30,152.9,216.3,1371.3,,
01/08/03,11:00,152.9,216.3,1371.3,,
01/08/03,11:30,153.2,216.0,1371.3,,
01/08/03,12:00,153.5,215.7,1371.3,,
01/08/03,12:30,153.3,215.9,1371.3,,
01/08/03,13:00,153.5,215.7,1371.3,,
01/08/03,13:30,153.8,215.4,1371.3,,
01/08/03,14:00,153.7,215.5,1371.3,,
01/08/03,14:30,153.6,215.6,1371.3,,
01/08/03,15:00,153.8,215.4,1371.3,,
01/08/03,15:30,153.7,215.5,1371.3,,
01/08/03,16:00,153.6,215.6,1371.3,,
01/08/03,16:30,154.2,215.0,1371.3,,
01/08/03,17:00,153.7,215.5,1371.3,,
01/08/03,17:30,153.7,215.5,1371.3,,
01/08/03,18:00,153.7,215.5,1371.3,,
01/08/03,18:30,153.5,215.7,1371.3,,
01/08/03,19:00,153.7,215.5,1371.3,,
01/08/03,19:30,153.5,215.7,1371.3,,
01/08/03,20:00,153.9,215.3,1371.3,,
01/08/03,20:30,153.5,215.7,1371.3,,
01/08/03,21:00,153.5,215.7,1371.3,,
01/08/03,21:30,153.5,215.7,1371.3,,
01/08/03,22:00,153.7,215.5,1371.3,,
01/08/03,22:30,153.4,215.8,1371.3,,
01/08/03,23:00,153.5,215.7,1371.3,,
01/08/03,23:30,153.5,215.7,1371.3,,
01/09/03,0:00,153.6,215.6,1371.3,,
01/09/03,0:30,153.5,215.7,1371.3,,
01/09/03,1:00,153.5,215.7,1371.3,,
01/09/03,1:30,153.7,215.5,1371.3,,
01/09/03,2:00,153.4,215.8,1371.3,,
01/09/03,2:30,153.7,215.5,1371.3,,
01/09/03,3:00,153.5,215.7,1371.3,,
01/09/03,3:30,153.4,215.8,1371.3,,
01/09/03,4:00,153.5,215.7,1371.3,,
01/09/03,4:30,153.4,215.8,1371.3,,
01/09/03,5:00,153.5,215.7,1371.3,,
01/09/03,5:30,153.3,215.9,1371.3,,
01/09/03,6:00,153.1,216.1,1371.3,,
01/09/03,6:30,153.4,215.8,1371.3,,
01/09/03,7:00,153.3,215.9,1371.3,,
01/09/03,7:30,153.5,215.7,1371.3,,
01/09/03,8:00,152.9,216.3,1371.3,,
01/09/03,8:30,152.9,216.3,1371.3,,
01/09/03,9:00,153.1,216.1,1371.3,,
01/09/03,9:30,152.9,216.3,1371.3,,
01/09/03,10:00,152.9,216.3,1371.3,,
01/09/03,10:30,152.9,216.3,1371.3,,
01/09/03,11:00,152.8,216.4,1371.3,,
01/09/03,11:30,153.0,216.2,1371.3,,
01/09/03,12:00,153.0,216.2,1371.3,,
01/09/03,12:30,153.2,216.0,1371.3,,
01/09/03,13:00,153.3,215.9,1371.3,,
01/09/03,13:30,153.5,215.7,1371.3,,
01/09/03,14:00,153.4,215.8,1371.3,,
01/09/03,14:30,153.6,215.6,1371.3,,
01/09/03,15:00,153.5,215.7,1371.3,,
01/09/03,15:30,153.3,215.9,1371.3,,
01/09/03,16:00,153.4,215.8,1371.3,,
01/09/03,16:30,153.4,215.8,1371.3,,
01/09/03,17:00,153.3,215.9,1371.3,,
01/09/03,17:30,153.3,215.9,1371.3,,
01/09/03,18:00,153.1,216.1,1371.3,,
01/09/03,18:30,153.1,216.1,1371.3,,
01/09/03,19:00,153.1,216.1,1371.3,,
01/09/03,19:30,152.9,216.3,1371.3,,
01/09/03,20:00,152.8,216.4,1371.3,,
01/09/03,20:30,152.9,216.3,1371.3,,
01/09/03,21:00,152.8,216.4,1371.3,,
01/09/03,21:30,152.7,216.5,1371.3,,
01/09/03,22:00,152.6,216.6,1371.3,,
01/09/03,22:30,152.6,216.6,1371.3,,
01/09/03,23:00,152.7,216.5,1371.3,,
01/09/03,23:30,152.6,216.6,1371.3,,
01/10/03,0:00,152.6,216.6,1371.3,,
01/10/03,0:30,152.7,216.5,1371.3,,
01/10/03,1:00,152.6,216.6,1371.3,,
01/10/03,1:30,152.6,216.6,1371.3,,
01/10/03,2:00,152.6,216.6,1371.3,,
01/10/03,2:30,152.6,216.6,1371.3,,
01/10/03,3:00,152.5,216.7,1371.3,,
01/10/03,3:30,152.6,216.6,1371.3,,
01/10/03,4:00,152.6,216.6,1371.3,,
01/10/03,4:30,152.6,216.6,1371.3,,
01/10/03,5:00,152.6,216.6,1371.3,,
01/10/03,5:30,152.7,216.5,1371.3,,
01/10/03,6:00,152.7,216.5,1371.3,,
01/10/03,6:30,152.5,216.7,1371.3,,
01/10/03,7:00,152.4,216.8,1371.3,,
01/10/03,7:30,152.6,216.6,1371.3,,
01/10/03,8:00,152.5,216.7,1371.3,,
01/10/03,8:30,152.3,216.9,1371.3,,
01/10/03,9:00,152.3,216.9,1371.3,,
01/10/03,9:30,152.3,216.9,1371.3,,
01/10/03,10:00,152.4,216.8,1371.3,,
01/10/03,10:30,152.6,216.6,1371.3,,
01/10/03,11:00,152.4,216.8,1371.3,,
01/10/03,11:30,152.6,216.6,1371.3,,
01/10/03,12:00,152.4,216.8,1371.3,,
01/10/03,12:30,152.9,216.3,1371.3,,
01/10/03,13:00,153.2,216.0,1371.3,,
01/10/03,13:30,153.2,216.0,1371.3,,
01/10/03,14:00,153.3,215.9,1371.3,,
01/10/03,14:30,153.3,215.9,1371.3,,
01/10/03,15:00,153.3,215.9,1371.3,,
01/10/03,15:30,153.4,215.8,1371.3,,
01/10/03,16:00,153.4,215.8,1371.3,,
01/10/03,16:30,153.4,215.8,1371.3,,
01/10/03,17:00,153.4,215.8,1371.3,,
01/10/03,17:30,153.6,215.6,1371.3,,
01/10/03,18:00,153.3,215.9,1371.3,,
01/10/03,18:30,153.2,216.0,1371.3,,
01/10/03,19:00,153.5,215.7,1371.3,,
01/10/03,19:30,153.1,216.1,1371.3,,
01/10/03,20:00,153.3,215.9,1371.3,,
01/10/03,20:30,153.1,216.1,1371.3,,
01/10/03,21:00,153.2,216.0,1371.3,,
01/10/03,21:30,153.1,216.1,1371.3,,
01/10/03,22:00,153.2,216.0,1371.3,,
01/10/03,22:30,153.1,216.1,1371.3,,
01/10/03,23:00,153.1,216.1,1371.3,,
01/10/03,23:30,153.2,216.0,1371.3,,
01/11/03,0:00,153.0,216.2,1371.3,,
01/11/03,0:30,153.2,216.0,1371.3,,
01/11/03,1:00,153.1,216.2,1371.3,,
01/11/03,1:30,153.1,216.2,1371.3,,
01/11/03,2:00,153.2,216.1,1371.3,,
01/11/03,2:30,153.3,216.0,1371.3,,
01/11/03,3:00,153.1,216.2,1371.3,,
01/11/03,3:30,153.4,215.9,1371.3,,
01/11/03,4:00,153.3,216.0,1371.3,,
01/11/03,4:30,152.9,216.4,1371.3,,
01/11/03,5:00,153.3,216.0,1371.3,,
01/11/03,5:30,153.4,215.9,1371.3,,
01/11/03,6:00,153.0,216.3,1371.3,,
01/11/03,6:30,153.2,216.1,1371.3,,
01/11/03,7:00,153.0,216.3,1371.3,,
01/11/03,7:30,153.2,216.1,1371.3,,
01/11/03,8:00,153.0,216.3,1371.3,,
01/11/03,8:30,152.9,216.4,1371.3,,
01/11/03,9:00,153.0,216.3,1371.3,,
01/11/03,9:30,153.0,216.3,1371.3,,
01/11/03,10:00,152.9,216.4,1371.3,,
01/11/03,10:30,153.2,216.1,1371.3,,
01/11/03,11:00,153.0,216.3,1371.3,,
01/11/03,11:30,153.1,216.1,1371.3,,
01/11/03,12:00,153.2,216.0,1371.3,,
01/11/03,12:30,153.0,216.2,1371.3,,
01/11/03,13:00,153.4,215.8,1371.3,,
01/11/03,13:30,153.3,215.9,1371.3,,
01/11/03,14:00,153.3,215.9,1371.3,,
01/11/03,14:30,153.3,215.9,1371.3,,
01/11/03,15:00,153.6,215.6,1371.3,,
01/11/03,15:30,153.6,215.6,1371.3,,
01/11/03,16:00,153.6,215.6,1371.3,,
01/11/03,16:30,153.5,215.7,1371.3,,
01/11/03,17:00,153.7,215.5,1371.3,,
01/11/03,17:30,153.5,215.7,1371.3,,
01/11/03,18:00,153.4,215.8,1371.3,,
01/11/03,18:30,153.3,215.9,1371.3,,
01/11/03,19:00,153.6,215.6,1371.3,,
01/11/03,19:30,153.3,215.9,1371.3,,
01/11/03,20:00,153.3,215.9,1371.3,,
01/11/03,20:30,153.0,216.2,1371.3,,
01/11/03,21:00,153.0,216.2,1371.3,,
01/11/03,21:30,153.1,216.1,1371.3,,
01/11/03,22:00,153.1,216.1,1371.3,,
01/11/03,22:30,152.8,216.4,1371.3,,
01/11/03,23:00,152.8,216.4,1371.3,,
01/11/03,23:30,152.9,216.3,1371.3,,
01/12/03,0:00,153.0,216.2,1371.3,,
01/12/03,0:30,152.9,216.3,1371.3,,
01/12/03,1:00,153.0,216.2,1371.3,,
01/12/03,1:30,153.0,216.2,1371.3,,
01/12/03,2:00,153.0,216.2,1371.3,,
01/12/03,2:30,152.9,216.3,1371.3,,
01/12/03,3:00,153.0,216.2,1371.3,,
01/12/03,3:30,153.0,216.2,1371.3,,
01/12/03,4:00,153.1,216.1,1371.3,,
01/12/03,4:30,153.0,216.2,1371.3,,
01/12/03,5:00,153.1,216.1,1371.3,,
01/12/03,5:30,152.9,216.3,1371.3,,
01/12/03,6:00,152.9,216.3,1371.3,,
01/12/03,6:30,152.9,216.3,1371.3,,
01/12/03,7:00,152.8,216.4,1371.3,,
01/12/03,7:30,152.6,216.6,1371.3,,
01/12/03,8:00,152.6,216.6,1371.3,,
01/12/03,8:30,152.9,216.3,1371.3,,
01/12/03,9:00,152.6,216.6,1371.3,,
01/12/03,9:30,152.8,216.4,1371.3,,
01/12/03,10:00,152.6,216.6,1371.3,,
01/12/03,10:30,152.6,216.6,1371.3,,
01/12/03,11:00,152.6,216.6,1371.3,,
01/12/03,11:30,152.6,216.6,1371.3,,
01/12/03,12:00,152.8,216.4,1371.3,,
01/12/03,12:30,152.8,216.4,1371.3,,
01/12/03,13:00,153.1,216.1,1371.3,,
01/12/03,13:30,153.1,216.1,1371.3,,
01/12/03,14:00,153.3,215.9,1371.3,,
01/12/03,14:30,153.2,216.0,1371.3,,
01/12/03,15:00,153.4,215.8,1371.3,,
01/12/03,15:30,153.3,215.9,1371.3,,
01/12/03,16:00,153.5,215.7,1371.3,,
01/12/03,16:30,153.3,215.9,1371.3,,
01/12/03,17:00,153.4,215.8,1371.3,,
01/12/03,17:30,153.3,215.9,1371.3,,
01/12/03,18:00,153.2,216.0,1371.3,,
01/12/03,18:30,153.2,216.0,1371.3,,
01/12/03,19:00,153.1,216.1,1371.3,,
01/12/03,19:30,153.2,216.0,1371.3,,
01/12/03,20:00,153.3,215.9,1371.3,,
01/12/03,20:30,153.1,216.1,1371.3,,
01/12/03,21:00,153.2,216.0,1371.3,,
01/12/03,21:30,153.0,216.2,1371.3,,
01/12/03,22:00,152.9,216.3,1371.3,,
01/12/03,22:30,152.8,216.4,1371.3,,
01/12/03,23:00,153.0,216.2,1371.3,,
01/12/03,23:30,153.0,216.2,1371.3,,
01/13/03,0:00,153.1,216.1,1371.3,,
01/13/03,0:30,153.3,215.9,1371.3,,
01/13/03,1:00,153.2,216.0,1371.3,,
01/13/03,1:30,153.2,216.0,1371.3,,
01/13/03,2:00,153.2,216.0,1371.3,,
01/13/03,2:30,153.4,215.8,1371.3,,
01/13/03,3:00,153.1,216.1,1371.3,,
01/13/03,3:30,153.4,215.8,1371.3,,
01/13/03,4:00,153.3,215.9,1371.3,,
01/13/03,4:30,153.3,215.9,1371.3,,
01/13/03,5:00,153.3,215.9,1371.3,,
01/13/03,5:30,153.3,215.9,1371.3,,
01/13/03,6:00,153.3,215.9,1371.3,,
01/13/03,6:30,153.4,215.8,1371.3,,
01/13/03,7:00,153.4,215.8,1371.3,,
01/13/03,7:30,153.4,215.8,1371.3,,
01/13/03,8:00,153.3,215.9,1371.3,,
01/13/03,8:30,153.5,215.7,1371.3,,
01/13/03,9:00,153.7,215.5,1371.3,,
01/13/03,9:30,153.5,215.7,1371.3,,
01/13/03,10:00,153.5,215.7,1371.3,,
01/13/03,10:30,153.6,215.6,1371.3,,
01/13/03,11:00,153.4,215.8,1371.3,,
01/13/03,11:30,153.8,215.4,1371.3,,
01/13/03,12:00,153.7,215.5,1371.3,,
01/13/03,12:30,,,,,
01/13/03,13:00,,,,,
01/13/03,13:30,,,,,
01/13/03,14:00,153.7,215.5,1371.3,,
01/13/03,14:30,153.5,215.7,1371.3,,
01/13/03,15:00,153.5,215.7,1371.3,,
01/13/03,15:30,153.5,215.7,1371.3,,
01/13/03,16:00,153.7,215.5,1371.3,,
01/13/03,16:30,153.9,215.3,1371.3,,
01/13/03,17:00,153.7,215.5,1371.3,,
01/13/03,17:30,153.8,215.4,1371.3,,
01/13/03,18:00,153.7,215.5,1371.3,,
01/13/03,18:30,153.7,215.5,1371.3,,
01/13/03,19:00,153.7,215.5,1371.3,,
01/13/03,19:30,153.6,215.6,1371.3,,
01/13/03,20:00,153.6,215.6,1371.3,,
01/13/03,20:30,153.5,215.7,1371.3,,
01/13/03,21:00,153.4,215.8,1371.3,,
01/13/03,21:30,153.6,215.6,1371.3,,
01/13/03,22:00,153.8,215.4,1371.3,,
01/13/03,22:30,153.4,215.8,1371.3,,
01/13/03,23:00,153.4,215.8,1371.3,,
01/13/03,23:30,153.7,215.5,1371.3,,
01/14/03,0:00,153.6,215.6,1371.3,,
01/14/03,0:30,153.7,215.5,1371.3,,
01/14/03,1:00,153.6,215.6,1371.3,,
01/14/03,1:30,153.6,215.6,1371.3,,
01/14/03,2:00,153.6,215.6,1371.3,,
01/14/03,2:30,153.8,215.4,1371.3,,
01/14/03,3:00,153.6,215.6,1371.3,,
01/14/03,3:30,153.9,215.3,1371.3,,
01/14/03,4:00,153.7,215.5,1371.3,,
01/14/03,4:30,153.8,215.4,1371.3,,
01/14/03,5:00,153.8,215.4,1371.3,,
01/14/03,5:30,154.0,215.2,1371.3,,
01/14/03,6:00,154.0,215.2,1371.3,,